Regional Weather Roundup
Issued by NWS

Home | Current Version | Previous Version | Text Only | Print | Product List | Glossary On
Versions: 1 2 3 4 5 6 7 8 9 10 11 12 13 14 15 16 17 18 19 20 21 22 23 24 25 26 27 28 29 30 31 32 33 34 35 36 37 38 39 40 41 42 43 44 45 46 47 48 49 50
000
ASUS43 KMKX 012311
RWRWI

WISCONSIN REGIONAL WEATHER ROUNDUP
NATIONAL WEATHER SERVICE MILWAUKEE/SULLIVAN WI
600 PM CDT SUN MAY 01 2016

NOTE: "FAIR" INDICATES FEW OR NO CLOUDS BELOW 12,000 FEET WITH NO
SIGNIFICANT WEATHER AND/OR OBSTRUCTIONS TO VISIBILITY.

WIZ001-002-006>008-014>016-023>028-020000-
NORTHWEST WISCONSIN

CITY           SKY/WX    TMP DP  RH WIND       PRES   REMARKS
SUPERIOR ARPT  SUNNY     46  35  67 NE6       30.19S
ASHLAND        SUNNY     51  36  56 NE14      30.18S
HAYWARD        SUNNY     57  34  41 NE14      30.12S
SIREN          SUNNY     61  26  26 NE10      30.11S
CUMBERLAND     SUNNY     59  32  36 N7        30.09S
RICE LAKE      PTSUNNY   61  32  33 N12       30.09S
CHETEK         PTSUNNY   60  35  38 N6        30.07S
LADYSMITH      CLOUDY    61  34  35 NE12      30.08S
EAU CLAIRE     PTSUNNY   62  31  31 NE8       30.05S
MENOMONIE      PTSUNNY   64  31  28 CALM      30.06S
NEW RICHMOND   SUNNY     62  31  32 N9        30.09S
OSCEOLA        SUNNY     62  31  31 NE10      30.12S
$$

WIZ003>005-009-010-017-018-020000-
NORTH CENTRAL WISCONSIN

CITY           SKY/WX    TMP DP  RH WIND       PRES   REMARKS
MANITOWISH WTR CLOUDY    56  34  43 NE8       30.10R
ARBOR VITAE    CLOUDY    59  32  35 NE5       30.09R
WOODRUFF       CLOUDY    59  32  35 NE5       30.09R
RHINELANDER    CLOUDY    58  28  32 E7        30.08S
EAGLE RIVER    MOSUNNY   57  26  30 NE8       30.08R
LAND O LAKES   CLOUDY    58  30  35 NE8       30.10S
PHILLIPS       CLOUDY    59  31  35 NE8       30.07S
TOMAHAWK       CLOUDY    58  27  30 NE5       30.07S
MEDFORD        PTSUNNY   60  30  32 E8        30.05S
MERRILL        CLOUDY    60  31  33 E9        30.07R
$$

WIZ029-030-035-036-043>047-020000-
CENTRAL WISCONSIN

CITY           SKY/WX    TMP DP  RH WIND       PRES   REMARKS
WAUSAU         CLOUDY    61  30  31 E14       30.04S
MOSINEE        NOT AVBL
MARSHFIELD     CLOUDY    59  34  39 SE8       30.05S
STEVENS POINT  MOSUNNY   55  33  44 E13       30.07R
WAUPACA        MOSUNNY   58  34  40 E13       30.08S
WAUTOMA        CLOUDY    56  35  45 NE17G23   30.06S
WISC RAPIDS    CLOUDY    58  29  33 E15G22    30.07R
CAMP DOUGLAS   CLOUDY    57  37  46 E15       30.05R
$$

WIZ011>013-019>022-031-037>040-048>050-020000-
NORTHEAST WISCONSIN

CITY           SKY/WX    TMP DP  RH WIND       PRES   REMARKS
ANTIGO         PTSUNNY   55  32  40 CALM      30.08R
SHAWANO        SUNNY     60  33  36 E10G16    30.09R
OCONTO         SUNNY     55  37  52 E9        30.09S
STURGEON BAY   SUNNY     54  37  54 E10G16    30.12S
GREEN BAY      SUNNY     55  40  56 NE17      30.09R
MANITOWOC      CLOUDY    49  38  65 NE7       30.09R
APPLETON       MOSUNNY   55  36  47 E16G23    30.07R
CLINTONVILLE   MOSUNNY   57  32  38 E15       30.08S
OSHKOSH        CLOUDY    53  40  61 E15       30.06R
$$

WIZ032>034-041-042-053>061-020000-
SOUTHWEST WISCONSIN

CITY           SKY/WX    TMP DP  RH WIND       PRES   REMARKS
LA CROSSE      CLOUDY    59  34  39 E7        30.06R
SPARTA         CLOUDY    58  34  40 E7        30.06S
VIROQUA        CLOUDY    53  42  65 CALM      30.06R
BOSCOBEL       LGT RAIN  52  48  86 CALM      30.06R
PRAIRIE DU CHI DRIZZLE   49  46  89 NW5       30.06S
PLATTEVILLE    CLOUDY    51  47  88 N9        30.02R
$$

WIZ056-057-062-063-064-067-068-020000-
SOUTH CENTRAL WISCONSIN

CITY           SKY/WX    TMP DP  RH WIND       PRES   REMARKS
REEDSBURG      LGT RAIN  54  39  58 E6        30.04S
BARABOO/DELLS  DRIZZLE   53  38  56 E12G17    30.05R
LONE ROCK      LGT RAIN  53  45  74 N7        30.05R
MINERAL POINT  CLOUDY    52  46  82 N8        30.02R
MADISON        CLOUDY    55  41  59 NE14G22   30.01S
MIDDLETON      CLOUDY    56  43  61 NE14G20   30.02S
WATERTOWN      CLOUDY    52  42  69 NE14      30.02S
MONROE         CLOUDY    54  43  66 NE15      29.99R
JANESVILLE     CLOUDY    55  45  67 E14       29.99S
$$

WIZ051-052-058>065-066-070>072-020000-
SOUTHEAST WISCONSIN

CITY           SKY/WX    TMP DP  RH WIND       PRES   REMARKS
MILWAUKEE      DRIZZLE   43  41  93 N14       30.03S FOG
WAUKESHA       PTSUNNY   46  39  76 E12G23    30.04F
MILWAUKEE/TIMM CLOUDY    48  37  66 NE10      30.05F
RACINE         CLOUDY    44  41  89 N13       30.03F
BURLINGTON     CLOUDY    47  41  78 NE9G16    30.01F
KENOSHA        CLOUDY    48  43  82 NE12      30.01F
FOND DU LAC    CLOUDY    54  40  59 NE14      30.06S
SHEBOYGAN      CLOUDY    47  40  76 NE13      30.07S
WEST BEND      CLOUDY    46  39  76 NE15G22   30.05S
JUNEAU         CLOUDY    51  41  68 NE13      30.05S
$$

LSZ147-162-020000-
LAKE SUPERIOR

STATION/POSITION TIME  TEMP    WIND        PRES    WAVE
                       AIR SEA DIR/SP/G            HT/PER
                 (UTC) (F)     (DEG/KT/KT) (MB)    (FT/S)
W MID LAKE BUOY  2250   40 37   70/  6/  8 1022.5F   2/ 5
DEVILS ISLAND    2300   38      10/  5/  6 1023.1S
SAXON HARBOR     2200   40     350/  5/  7 1021.7F
$$

LMZ867-665-643>646-020000-
LAKE MICHIGAN

STATION/POSITION TIME  TEMP    WIND        PRES    WAVE
                       AIR SEA DIR/SP/G            HT/PER
                 (UTC) (F)     (DEG/KT/KT) (MB)    (FT/S)
CHAMBERS ISLAND  2240   48      30/  7/  9 1019.3F
N MID LAKE BUOY  2250   42 39  330/  6/ 10 1019.2F   0
NORTHPORT PIER   2200   48     120/  2/  3 1019.3F
KEWAUNEE LAKESHO 2200   45      30/ 11/ 16 1018.0F
SHEBOYGAN LAKESH 2300   42      20/ 16/ 17 1018.9S
PORT WASHINGTON  2200   47      30/  8/ 14 1018.6R
S MID LAKE BUOY  2250   41 40   20/ 10/ 12 1015.9F   2/ 5
KENOSHA   LAKESH 2300   44      10/ 19/ 22 1015.9F
$$

TC  - TEMPERATURE IN CELSIUS
VSB - VISIBILITY IN STATUTE MILES
WCI - WIND CHILL INDEX
HX  - HEAT INDEX




USA.gov is the U.S. government's official web portal to all federal, state and local government web resources and services.